When you browse on this site, cookies collect data to enhance your experience and personalize the content and advertising you see.
Visit our Privacy Policy to learn more. By continuing to use the site, you agree to this use of cookies and data.
  • In Portugal
  • List of Countries
  • For 7 days
  • Water Temperature
  • Weather Map
  • Weather Widgets
  • user-avatar
    Login

    Hourly Weather Yeghegnadzor

    Today, 23 October, Wednesday

    Time Temperature Precipitation Wind Pressure Humidity
    00:00 +11°C° 0 mm 0 mps 656 mmHg 76%
    01:00 +11°C° 0 mm 0 mps 655 mmHg 77%
    02:00 +11°C° 0 mm 0 mps 655 mmHg 78%
    03:00 +10°C° 0 mm 0 mps 655 mmHg 79%
    04:00 +10°C° 0 mm 0 mps 655 mmHg 80%
    05:00 +9°C° 0 mm 0 mps 655 mmHg 82%
    06:00 +9°C° 0 mm 0 mps 655 mmHg 83%
    07:00 +10°C° 0 mm 0 mps 655 mmHg 76%
    08:00 +12°C° 0 mm 0 mps 656 mmHg 69%
    09:00 +13°C° 0 mm 0 mps 656 mmHg 61%
    10:00 +15°C° 0 mm 1 mps 656 mmHg 58%
    11:00 +16°C° 0 mm 1 mps 656 mmHg 54%
    12:00 +17°C° 0 mm 2 mps 657 mmHg 51%
    13:00 +17°C° 0.1 mm 2 mps 656 mmHg 52%
    14:00 +17°C° 0.1 mm 2 mps 656 mmHg 52%
    15:00 +17°C° 0 mm 2 mps 655 mmHg 51%
    16:00 +16°C° 0 mm 2 mps 655 mmHg 55%
    17:00 +15°C° 0 mm 1 mps 655 mmHg 59%
    18:00 +14°C° 0 mm 1 mps 655 mmHg 62%
    19:00 +12°C° 0 mm 0 mps 655 mmHg 65%
    20:00 +12°C° 0 mm 0 mps 655 mmHg 67%
    21:00 +11°C° 0 mm 0 mps 655 mmHg 69%
    22:00 +11°C° 0 mm 0 mps 655 mmHg 70%
    23:00 +12°C° 0 mm 1 mps 655 mmHg 72%

    Tomorrow, 24 October, Thursday

    Time Temperature Precipitation Wind Pressure Humidity
    00:00 +11°C° 0 mm 1 mps 655 mmHg 73%
    01:00 +11°C° 0 mm 1 mps 655 mmHg 75%
    02:00 +11°C° 0 mm 1 mps 655 mmHg 76%
    03:00 +11°C° 0 mm 1 mps 655 mmHg 77%
    04:00 +10°C° 0 mm 1 mps 655 mmHg 78%
    05:00 +10°C° 0 mm 1 mps 655 mmHg 80%
    06:00 +9°C° 0 mm 1 mps 655 mmHg 81%
    07:00 +11°C° 0 mm 1 mps 655 mmHg 72%
    08:00 +13°C° 0 mm 1 mps 656 mmHg 63%
    09:00 +14°C° 0 mm 0 mps 657 mmHg 55%
    10:00 +16°C° 0 mm 1 mps 657 mmHg 51%
    11:00 +18°C° 0 mm 1 mps 656 mmHg 48%
    12:00 +17°C° 0 mm 2 mps 656 mmHg 45%
    13:00 +18°C° 0 mm 2 mps 656 mmHg 45%
    14:00 +18°C° 0 mm 2 mps 656 mmHg 45%
    15:00 +18°C° 0 mm 2 mps 656 mmHg 46%
    16:00 +16°C° 0 mm 1 mps 655 mmHg 51%
    17:00 +15°C° 0 mm 1 mps 655 mmHg 57%
    18:00 +12°C° 0 mm 0 mps 655 mmHg 62%
    19:00 +12°C° 0 mm 0 mps 655 mmHg 64%
    20:00 +12°C° 0 mm 1 mps 655 mmHg 66%
    21:00 +12°C° 0 mm 1 mps 655 mmHg 68%
    22:00 +11°C° 0 mm 1 mps 655 mmHg 70%
    23:00 +11°C° 0 mm 1 mps 655 mmHg 71%

    Day after tomorrow, 25 October, Friday

    Time Temperature Precipitation Wind Pressure Humidity
    00:00 +11°C° 0 mm 1 mps 655 mmHg 73%
    01:00 +10°C° 0 mm 1 mps 654 mmHg 74%
    02:00 +10°C° 0 mm 1 mps 654 mmHg 75%
    03:00 +10°C° 0 mm 1 mps 654 mmHg 76%
    04:00 +9°C° 0 mm 1 mps 654 mmHg 76%
    05:00 +9°C° 0 mm 1 mps 654 mmHg 76%
    06:00 +9°C° 0 mm 1 mps 654 mmHg 77%
    07:00 +11°C° 0 mm 1 mps 654 mmHg 67%
    08:00 +13°C° 0 mm 1 mps 655 mmHg 58%
    09:00 +15°C° 0 mm 1 mps 656 mmHg 49%
    10:00 +16°C° 0 mm 1 mps 656 mmHg 46%
    11:00 +18°C° 0 mm 1 mps 656 mmHg 42%
    12:00 +18°C° 0 mm 2 mps 656 mmHg 39%
    13:00 +18°C° 0 mm 2 mps 655 mmHg 39%
    14:00 +18°C° 0 mm 2 mps 655 mmHg 38%
    15:00 +18°C° 0 mm 2 mps 655 mmHg 37%
    16:00 +18°C° 0 mm 1 mps 654 mmHg 44%
    17:00 +15°C° 0 mm 1 mps 654 mmHg 50%
    18:00 +12°C° 0 mm 0 mps 653 mmHg 57%
    19:00 +13°C° 0 mm 1 mps 653 mmHg 58%
    20:00 +12°C° 0 mm 1 mps 653 mmHg 59%
    21:00 +12°C° 0 mm 1 mps 653 mmHg 59%
    22:00 +12°C° 0 mm 1 mps 653 mmHg 61%
    23:00 +11°C° 0 mm 1 mps 653 mmHg 63%

    26 October, Saturday

    Time Temperature Precipitation Wind Pressure Humidity
    00:00 +11°C° 0 mm 1 mps 653 mmHg 65%
    01:00 +11°C° 0 mm 1 mps 653 mmHg 67%
    02:00 +10°C° 0 mm 1 mps 653 mmHg 69%
    03:00 +10°C° 0 mm 1 mps 652 mmHg 71%
    04:00 +10°C° 0 mm 1 mps 652 mmHg 72%
    05:00 +9°C° 0 mm 1 mps 652 mmHg 73%
    06:00 +9°C° 0 mm 1 mps 652 mmHg 73%
    07:00 +11°C° 0 mm 1 mps 653 mmHg 65%
    08:00 +13°C° 0 mm 1 mps 654 mmHg 56%
    09:00 +15°C° 0 mm 1 mps 654 mmHg 48%
    10:00 +16°C° 0 mm 1 mps 654 mmHg 44%
    11:00 +18°C° 0 mm 1 mps 654 mmHg 41%
    12:00 +18°C° 0 mm 2 mps 654 mmHg 37%
    13:00 +18°C° 0 mm 2 mps 654 mmHg 38%
    14:00 +18°C° 0 mm 2 mps 654 mmHg 39%
    15:00 +18°C° 0 mm 2 mps 654 mmHg 39%
    16:00 +16°C° 0 mm 2 mps 654 mmHg 46%
    17:00 +15°C° 0 mm 1 mps 654 mmHg 53%
    18:00 +13°C° 0 mm 1 mps 653 mmHg 61%
    19:00 +13°C° 0 mm 1 mps 653 mmHg 64%
    20:00 +12°C° 0 mm 1 mps 654 mmHg 67%
    21:00 +12°C° 0 mm 1 mps 654 mmHg 70%
    22:00 +11°C° 0 mm 1 mps 654 mmHg 72%
    23:00 +11°C° 0 mm 1 mps 654 mmHg 73%

    27 October, Sunday

    Time Temperature Precipitation Wind Pressure Humidity
    00:00 +11°C° 0 mm 1 mps 653 mmHg 75%
    01:00 +10°C° 0 mm 1 mps 653 mmHg 76%
    02:00 +10°C° 0 mm 1 mps 653 mmHg 77%
    03:00 +10°C° 0 mm 1 mps 653 mmHg 79%
    04:00 +9°C° 0 mm 1 mps 653 mmHg 80%
    05:00 +9°C° 0 mm 1 mps 653 mmHg 80%
    06:00 +8°C° 0 mm 1 mps 653 mmHg 81%
    07:00 +10°C° 0 mm 1 mps 654 mmHg 72%
    08:00 +12°C° 0 mm 1 mps 655 mmHg 62%
    09:00 +14°C° 0 mm 1 mps 656 mmHg 53%
    10:00 +15°C° 0 mm 1 mps 656 mmHg 49%
    11:00 +16°C° 0 mm 2 mps 656 mmHg 46%
    12:00 +17°C° 0 mm 2 mps 656 mmHg 42%
    13:00 +17°C° 0 mm 2 mps 655 mmHg 42%
    14:00 +17°C° 0 mm 2 mps 655 mmHg 42%
    15:00 +17°C° 0 mm 2 mps 655 mmHg 42%
    16:00 +16°C° 0 mm 2 mps 655 mmHg 48%
    17:00 +14°C° 0 mm 1 mps 654 mmHg 54%
    18:00 +13°C° 0 mm 1 mps 654 mmHg 59%
    19:00 +12°C° 0 mm 1 mps 654 mmHg 60%
    20:00 +12°C° 0 mm 1 mps 654 mmHg 60%
    21:00 +11°C° 0 mm 1 mps 655 mmHg 61%
    22:00 +11°C° 0 mm 1 mps 655 mmHg 62%
    23:00 +10°C° 0 mm 1 mps 655 mmHg 63%

    28 October, Monday

    Time Temperature Precipitation Wind Pressure Humidity
    00:00 +10°C° 0 mm 1 mps 655 mmHg 64%
    01:00 +10°C° 0 mm 1 mps 655 mmHg 67%
    02:00 +9°C° 0 mm 1 mps 654 mmHg 70%
    03:00 +9°C° 0 mm 1 mps 654 mmHg 73%
    04:00 +9°C° 0 mm 1 mps 654 mmHg 71%
    05:00 +9°C° 0 mm 1 mps 654 mmHg 70%
    06:00 +8°C° 0 mm 1 mps 655 mmHg 68%
    07:00 +10°C° 0 mm 1 mps 655 mmHg 59%
    08:00 +12°C° 0 mm 0 mps 656 mmHg 50%
    09:00 +14°C° 0 mm 0 mps 657 mmHg 41%
    10:00 +16°C° 0 mm 1 mps 657 mmHg 38%
    11:00 +18°C° 0 mm 1 mps 657 mmHg 36%
    12:00 +18°C° 0 mm 2 mps 657 mmHg 33%
    13:00 +18°C° 0 mm 2 mps 656 mmHg 33%
    14:00 +18°C° 0 mm 2 mps 656 mmHg 33%
    15:00 +19°C° 0 mm 2 mps 656 mmHg 32%
    16:00 +18°C° 0 mm 1 mps 655 mmHg 39%
    17:00 +15°C° 0 mm 1 mps 655 mmHg 46%
    18:00 +12°C° 0 mm 0 mps 654 mmHg 53%
    19:00 +12°C° 0 mm 1 mps 654 mmHg 54%
    20:00 +12°C° 0 mm 1 mps 654 mmHg 54%
    21:00 +12°C° 0 mm 1 mps 654 mmHg 55%
    22:00 +11°C° 0 mm 1 mps 654 mmHg 56%
    23:00 +11°C° 0 mm 1 mps 654 mmHg 58%

    29 October, Tuesday

    Time Temperature Precipitation Wind Pressure Humidity
    00:00 +10°C° 0 mm 1 mps 654 mmHg 59%
    01:00 +10°C° 0 mm 1 mps 653 mmHg 61%
    02:00 +10°C° 0 mm 1 mps 653 mmHg 62%
    03:00 +9°C° 0 mm 1 mps 653 mmHg 64%
    04:00 +9°C° 0 mm 1 mps 653 mmHg 63%
    05:00 +9°C° 0 mm 1 mps 653 mmHg 63%
    06:00 +9°C° 0 mm 1 mps 653 mmHg 62%
    07:00 +11°C° 0 mm 1 mps 653 mmHg 54%
    08:00 +13°C° 0 mm 1 mps 654 mmHg 46%
    09:00 +16°C° 0 mm 1 mps 655 mmHg 37%
    10:00 +18°C° 0 mm 1 mps 654 mmHg 35%
    11:00 +19°C° 0 mm 1 mps 654 mmHg 33%
    12:00 +19°C° 0 mm 2 mps 654 mmHg 31%
    13:00 +19°C° 0 mm 2 mps 654 mmHg 31%
    14:00 +19°C° 0 mm 2 mps 654 mmHg 30%
    15:00 +19°C° 0 mm 2 mps 653 mmHg 30%
    16:00 +17°C° 0 mm 2 mps 653 mmHg 35%
    17:00 +15°C° 0 mm 1 mps 652 mmHg 40%
    18:00 +12°C° 0 mm 0 mps 652 mmHg 46%
    19:00 +13°C° 0 mm 1 mps 652 mmHg 46%
    20:00 +12°C° 0 mm 1 mps 652 mmHg 47%
    21:00 +12°C° 0 mm 1 mps 652 mmHg 47%
    22:00 +12°C° 0 mm 1 mps 652 mmHg 48%
    23:00 +11°C° 0 mm 1 mps 651 mmHg 49%
    Show more